EN

Hourly Weather Laczka

Today, 1 August, Sunday

Time Temperature Precipitation Wind Pressure Humidity
00:00 +17°C° 0 mm 4 mps 741 mmHg 73%
01:00 +16°C° 0 mm 3 mps 741 mmHg 79%
02:00 +14°C° 0 mm 3 mps 741 mmHg 82%
03:00 +14°C° 0 mm 3 mps 741 mmHg 85%
04:00 +14°C° 0 mm 3 mps 741 mmHg 88%
05:00 +16°C° 0 mm 3 mps 741 mmHg 84%
06:00 +16°C° 0 mm 3 mps 741 mmHg 80%
07:00 +17°C° 0 mm 3 mps 741 mmHg 76%
08:00 +19°C° 0 mm 3 mps 741 mmHg 69%
09:00 +20°C° 0 mm 3 mps 742 mmHg 63%
10:00 +21°C° 0 mm 3 mps 742 mmHg 56%
11:00 +22°C° 0 mm 3 mps 742 mmHg 54%
12:00 +22°C° 0 mm 4 mps 742 mmHg 53%
13:00 +22°C° 0 mm 4 mps 742 mmHg 51%
14:00 +22°C° 0.1 mm 3 mps 742 mmHg 52%
15:00 +22°C° 0.1 mm 3 mps 742 mmHg 54%
16:00 +22°C° 0.1 mm 3 mps 741 mmHg 55%
17:00 +21°C° 0.1 mm 3 mps 741 mmHg 62%
18:00 +19°C° 0.1 mm 2 mps 741 mmHg 69%
19:00 +18°C° 0.1 mm 2 mps 741 mmHg 76%
20:00 +18°C° 0 mm 1 mps 742 mmHg 80%
21:00 +16°C° 0 mm 1 mps 742 mmHg 84%
22:00 +15°C° 0 mm 1 mps 742 mmHg 89%
23:00 +15°C° 0 mm 1 mps 742 mmHg 89%

Tomorrow, 2 August, Monday

Time Temperature Precipitation Wind Pressure Humidity
00:00 +15°C° 0 mm 1 mps 742 mmHg 90%
01:00 +14°C° 0 mm 1 mps 742 mmHg 91%
02:00 +14°C° 0 mm 1 mps 742 mmHg 92%
03:00 +14°C° 0 mm 2 mps 742 mmHg 92%
04:00 +13°C° 0 mm 2 mps 742 mmHg 93%
05:00 +15°C° 0 mm 2 mps 742 mmHg 88%
06:00 +16°C° 0 mm 3 mps 742 mmHg 83%
07:00 +17°C° 0 mm 4 mps 742 mmHg 78%
08:00 +18°C° 0 mm 4 mps 742 mmHg 69%
09:00 +19°C° 0 mm 5 mps 742 mmHg 60%
10:00 +20°C° 0 mm 5 mps 743 mmHg 51%
11:00 +21°C° 0 mm 5 mps 743 mmHg 46%
12:00 +22°C° 0 mm 6 mps 743 mmHg 41%
13:00 +23°C° 0 mm 6 mps 743 mmHg 36%
14:00 +22°C° 0 mm 6 mps 743 mmHg 38%
15:00 +22°C° 0 mm 6 mps 743 mmHg 41%
16:00 +21°C° 0 mm 6 mps 743 mmHg 44%
17:00 +20°C° 0 mm 5 mps 744 mmHg 49%
18:00 +19°C° 0 mm 4 mps 744 mmHg 55%
19:00 +18°C° 0 mm 3 mps 744 mmHg 61%
20:00 +17°C° 0 mm 3 mps 744 mmHg 67%
21:00 +14°C° 0 mm 3 mps 744 mmHg 72%
22:00 +14°C° 0 mm 2 mps 745 mmHg 77%
23:00 +14°C° 0 mm 2 mps 745 mmHg 80%

Day after tomorrow, 3 August, Tuesday

Time Temperature Precipitation Wind Pressure Humidity
00:00 +12°C° 0 mm 3 mps 745 mmHg 82%
01:00 +12°C° 0 mm 3 mps 745 mmHg 84%
02:00 +12°C° 0 mm 3 mps 745 mmHg 87%
03:00 +11°C° 0 mm 3 mps 745 mmHg 90%
04:00 +11°C° 0 mm 3 mps 745 mmHg 92%
05:00 +13°C° 0 mm 3 mps 746 mmHg 85%
06:00 +14°C° 0 mm 4 mps 746 mmHg 77%
07:00 +15°C° 0 mm 4 mps 746 mmHg 69%
08:00 +18°C° 0 mm 4 mps 746 mmHg 61%
09:00 +20°C° 0 mm 4 mps 746 mmHg 53%
10:00 +21°C° 0 mm 4 mps 746 mmHg 45%
11:00 +22°C° 0 mm 4 mps 746 mmHg 41%
12:00 +23°C° 0 mm 4 mps 746 mmHg 37%
13:00 +25°C° 0 mm 4 mps 746 mmHg 33%
14:00 +23°C° 0 mm 4 mps 746 mmHg 35%
15:00 +23°C° 0 mm 4 mps 746 mmHg 36%
16:00 +23°C° 0 mm 4 mps 746 mmHg 38%
17:00 +22°C° 0 mm 3 mps 746 mmHg 44%
18:00 +20°C° 0 mm 2 mps 746 mmHg 50%
19:00 +20°C° 0 mm 1 mps 746 mmHg 56%
20:00 +19°C° 0.1 mm 1 mps 746 mmHg 61%
21:00 +18°C° 0.1 mm 1 mps 746 mmHg 66%
22:00 +16°C° 0.1 mm 1 mps 746 mmHg 70%
23:00 +16°C° 0 mm 1 mps 747 mmHg 72%

4 August, Wednesday

Time Temperature Precipitation Wind Pressure Humidity
00:00 +16°C° 0 mm 1 mps 747 mmHg 73%
01:00 +16°C° 0 mm 1 mps 747 mmHg 74%
02:00 +15°C° 0 mm 1 mps 746 mmHg 75%
03:00 +15°C° 0 mm 1 mps 746 mmHg 76%
04:00 +15°C° 0 mm 1 mps 746 mmHg 78%
05:00 +16°C° 0 mm 1 mps 746 mmHg 73%
06:00 +18°C° 0 mm 1 mps 746 mmHg 69%
07:00 +20°C° 0 mm 1 mps 746 mmHg 65%
08:00 +21°C° 0 mm 1 mps 746 mmHg 60%
09:00 +22°C° 0 mm 1 mps 746 mmHg 56%
10:00 +23°C° 0 mm 1 mps 746 mmHg 52%
11:00 +24°C° 0 mm 1 mps 746 mmHg 49%
12:00 +25°C° 0 mm 1 mps 745 mmHg 46%
13:00 +26°C° 0 mm 2 mps 745 mmHg 42%
14:00 +24°C° 1.2 mm 2 mps 745 mmHg 53%
15:00 +23°C° 1.2 mm 2 mps 745 mmHg 64%
16:00 +20°C° 1.2 mm 2 mps 745 mmHg 76%
17:00 +19°C° 0.7 mm 2 mps 745 mmHg 79%
18:00 +18°C° 0.7 mm 2 mps 745 mmHg 83%
19:00 +19°C° 0.7 mm 1 mps 745 mmHg 86%
20:00 +18°C° 0.2 mm 1 mps 745 mmHg 88%
21:00 +18°C° 0.2 mm 1 mps 745 mmHg 90%
22:00 +16°C° 0.2 mm 1 mps 745 mmHg 91%
23:00 +16°C° 0.1 mm 1 mps 745 mmHg 93%

5 August, Thursday

Time Temperature Precipitation Wind Pressure Humidity
00:00 +15°C° 0.1 mm 1 mps 744 mmHg 94%
01:00 +15°C° 0.1 mm 1 mps 744 mmHg 96%
02:00 +15°C° 0.1 mm 1 mps 744 mmHg 96%
03:00 +15°C° 0.1 mm 1 mps 744 mmHg 97%
04:00 +14°C° 0.1 mm 2 mps 744 mmHg 97%
05:00 +15°C° 0.1 mm 2 mps 744 mmHg 95%
06:00 +16°C° 0.1 mm 2 mps 743 mmHg 93%
07:00 +16°C° 0.1 mm 2 mps 743 mmHg 91%
08:00 +17°C° 0 mm 3 mps 743 mmHg 85%
09:00 +18°C° 0 mm 3 mps 743 mmHg 80%
10:00 +19°C° 0 mm 3 mps 743 mmHg 75%
11:00 +20°C° 0.3 mm 3 mps 743 mmHg 71%
12:00 +20°C° 0.3 mm 3 mps 742 mmHg 68%
13:00 +21°C° 0.3 mm 4 mps 742 mmHg 65%
14:00 +21°C° 0.3 mm 4 mps 742 mmHg 64%
15:00 +21°C° 0.3 mm 4 mps 742 mmHg 62%
16:00 +21°C° 0.3 mm 4 mps 742 mmHg 61%
17:00 +20°C° 0.3 mm 3 mps 741 mmHg 67%
18:00 +19°C° 0.3 mm 3 mps 741 mmHg 73%
19:00 +18°C° 0.3 mm 3 mps 741 mmHg 79%
20:00 +17°C° 0 mm 3 mps 741 mmHg 84%
21:00 +16°C° 0 mm 3 mps 741 mmHg 89%
22:00 +14°C° 0 mm 3 mps 741 mmHg 94%
23:00 +13°C° 0 mm 3 mps 741 mmHg 95%

6 August, Friday

Time Temperature Precipitation Wind Pressure Humidity
00:00 +13°C° 0 mm 3 mps 741 mmHg 96%
01:00 +13°C° 0 mm 3 mps 740 mmHg 97%
02:00 +12°C° 0 mm 3 mps 740 mmHg 97%
03:00 +12°C° 0 mm 3 mps 740 mmHg 97%
04:00 +12°C° 0 mm 4 mps 740 mmHg 97%
05:00 +13°C° 0 mm 4 mps 740 mmHg 93%
06:00 +14°C° 0 mm 5 mps 739 mmHg 89%
07:00 +15°C° 0 mm 5 mps 739 mmHg 85%
08:00 +16°C° 0 mm 5 mps 739 mmHg 78%
09:00 +17°C° 0 mm 6 mps 739 mmHg 71%
10:00 +19°C° 0 mm 6 mps 739 mmHg 64%
11:00 +19°C° 0.3 mm 6 mps 740 mmHg 66%
12:00 +19°C° 0.3 mm 6 mps 740 mmHg 68%
13:00 +19°C° 0.3 mm 5 mps 740 mmHg 70%
14:00 +20°C° 0.3 mm 5 mps 740 mmHg 68%
15:00 +20°C° 0.3 mm 5 mps 740 mmHg 66%
16:00 +21°C° 0.3 mm 5 mps 740 mmHg 64%
17:00 +20°C° 0.1 mm 4 mps 740 mmHg 67%
18:00 +19°C° 0.1 mm 3 mps 740 mmHg 71%
19:00 +18°C° 0.1 mm 2 mps 739 mmHg 74%
20:00 +17°C° 0 mm 2 mps 740 mmHg 78%
21:00 +16°C° 0 mm 2 mps 740 mmHg 83%
22:00 +15°C° 0 mm 2 mps 740 mmHg 87%
23:00 +15°C° 0 mm 2 mps 740 mmHg 90%
Show more